Terminal Aerodrome Forecast
Issued by NWS King Salmon, AK

Home | Current Version | Previous Version | Text Only | Print | Product List | Glossary On
Versions: 1 2 3 4 5 6 7 8 9 10 11 12 13 14 15 16 17 18 19 20 21 22 23 24 25 26 27 28 29 30 31 32 33 34 35 36 37 38 39 40 41 42
000
FTAK31 PANC 202329
TAFAKN
TAF
PAKN 202329Z 2100/2124 00000KT P6SM VCSH SCT020 OVC035
      TEMPO 2100/2102 BKN025
     FM210400 VRB04KT P6SM BKN040=

USA.gov is the U.S. government's official web portal to all federal, state and local government web resources and services.